Regional Weather Roundup
Issued by NWS

Home | Current Version | Previous Version | Graphics & Text | Print | Product List | Glossary On
Versions: 1 2 3 4 5 6 7 8 9 10 11 12 13 14 15 16 17 18 19 20 21 22 23 24 25 26 27
000
ASUS45 KSLC 211010
RWRUT

UTAH REGIONAL WEATHER ROUNDUP
NATIONAL WEATHER SERVICE SALT LAKE CITY UT
300 AM MST SUN JAN 21 2018

UTZ001>011-023>025-211100-

NORTHERN UTAH

CITY           SKY/WX    TMP DP  RH WIND       PRES   REMARKS
BRIGHAM CITY   PTCLDY    28  19  69 NW10      30.05R WCI  18
HILL AFB       MOCLDY    26  17  70 NW13G20   30.01R WCI  15
LOGAN          MOCLDY    19  13  77 E3        30.04R
OGDEN          PTCLDY    26  18  71 NW15      30.02R WCI  14
SALT LAKE CITY MOCLDY    28  22  78 NW6       30.03R WCI  22
TOOELE VALLEY  PTCLDY    25  21  86 NW13      30.05R WCI  13
WENDOVER       PTCLDY    29  18  63 NW16G25   30.09R WCI  17
HEBER CITY     PTSUNNY   23  14  68 NE6       29.92S WCI  16
WEST JORDAN    MOCLDY    21  20  95 NW8       30.03R WCI  11

$$

UTZ011>015-024>027-211100-

CENTRAL/NORTHEAST UTAH

CITY           SKY/WX    TMP DP  RH WIND       PRES   REMARKS
PROVO AIRPORT  FLURRIES  28  22  78 NW24      30.00R WCI  14
MOAB/CANYONLAN CLOUDY    31  21  66 W18       29.76R WCI  19
DELTA          CLOUDY    19  18  93 NW6       30.04R WCI  11
PRICE          CLOUDY    26  14  60 NW10G18   29.80R WCI  16
RICHFIELD      MOCLDY    23  21  93 CALM      29.99R
ROOSEVELT      CLOUDY    28  23  80 SW5       29.84S WCI  23
VERNAL         CLOUDY    29  20  69 S3        29.81R

$$

UTZ013>016-019>022-027-211100-

SOUTHERN UTAH

CITY           SKY/WX    TMP DP  RH WIND       PRES   REMARKS
BRYCE CANYON   LGT SNOW  17  13  84 NW20G29   29.86R FOG     WCI   1
CEDAR CITY     CLOUDY    18  16  92 E3        30.02R
MILFORD        CLOUDY    15  11  83 CALM      30.04R
ST GEORGE      PTSUNNY   36  22  56 NW8       30.08R WCI  30
HANKSVILLE     MOCLDY    32  12  43 W6        29.85S WCI  26
KANAB          CLOUDY    30  16  55 W13       30.00R WCI  20
BLANDING         N/A     28  27  99 CALM      29.82S VSB 1/2

$$

REGIONAL REPORTS     COLORADO/ARIZONA

CITY           SKY/WX    TMP DP  RH WIND       PRES   REMARKS
CRAIG, CO      LGT SNOW  22  19  89 SW9       29.74S FOG     WCI  12
GRAND JUNCTION LGT SNOW  31  31 100 W13       29.74S VSB 1   WCI  21
RIFLE, CO      CLOUDY    32  30  92 NW9       29.69R WCI  24
MONTROSE, CO   PTCLDY    31  19  61 E6        29.72S WCI  25
CORTEZ, CO     PTCLDY    25  22  88 S8        29.77F WCI  16
COLORADO CITY    N/A     30  21  69 NW13G21   30.03R WCI  20
PAGE, AZ       CLOUDY    35  14  42 W10G22    29.87R WCI  27
GRAND CANYON   LGT SNOW  20  17  88 VRB6      29.93R FOG     WCI  12
KINGMAN, AZ    CLEAR    N/A N/A N/A NE6       30.10R
FLAGSTAFF, AZ  LGT SNOW  20  15  81 W9        29.91R WCI   9

$$

REGIONAL REPORTS    NEVADA/IDAHO/WYOMING

CITY           SKY/WX    TMP DP  RH WIND       PRES   REMARKS
LAS VEGAS, NV  CLEAR     45  13  27 NW15      30.14R
ELY, NY        CLOUDY    11   7  84 CALM      30.09R
ELKO, NV       CLOUDY    26  20  77 CALM      30.15R
POCATELLO, ID  CLOUDY    27  23  85 SW14      30.08R WCI  16
BURLEY, ID     MOCLDY    26  22  84 W7        30.10R WCI  18
EVANSTON, WY   CLOUDY    15  12  88 NW7       29.89R WCI   5
ROCK SPRINGS,  FLURRIES  19  14  81 N9        29.85R WCI   8

$$




USA.gov is the U.S. government's official web portal to all federal, state and local government web resources and services.